Total_Precipitation_Accumulation
0.82 0.84 0.88 0.98 0.97 0.97 0.96 0.90 0.84 0.83 0.91 0.94 0.93 0.97 1.00 1.01 1.02 1.07 1.06 1.02 1.01 0.97 0.94 0.97 0.97 1.01 1.09 1.08 1.04 0.98 0.95 1.04 1.06 0.56 0.40 0.44 0.53 0.57 0.58 0.54 0.48 0.47 0.50
0.80 0.82 0.84 0.95 1.01 0.99 1.05 1.04 0.93 0.85 0.86 0.92 0.96 0.99 1.06 1.09 1.08 1.11 1.14 1.13 1.18 1.15 1.05 1.03 1.02 1.05 1.12 1.15 1.22 1.18 1.07 0.99 1.07 0.85 0.55 0.53 0.62 0.68 0.70 0.68 0.63 0.57 0.53
0.77 0.82 0.85 0.90 0.99 1.00 1.03 1.11 1.09 1.06 1.08 1.06 1.09 1.13 1.17 1.21 1.25 1.27 1.28 1.32 1.37 1.37 1.31 1.27 1.17 1.15 1.20 1.19 1.23 1.25 1.17 1.08 1.04 1.01 0.78 0.66 0.68 0.70 0.78 0.80 0.78 0.75 0.68
0.73 0.85 0.87 0.90 0.93 0.97 1.02 1.07 1.18 1.25 1.33 1.39 1.37 1.36 1.37 1.43 1.55 1.63 1.62 1.61 1.58 1.54 1.50 1.47 1.41 1.34 1.32 1.31 1.34 1.29 1.23 1.23 1.18 1.16 1.01 0.86 0.83 0.78 0.87 0.94 0.97 0.92 0.86
0.69 0.79 0.87 0.92 1.03 1.10 1.12 1.14 1.18 1.31 1.40 1.41 1.46 1.48 1.45 1.62 1.91 2.04 1.89 1.67 1.54 1.48 1.43 1.42 1.46 1.56 1.56 1.59 1.66 1.54 1.45 1.48 1.42 1.36 1.21 1.01 0.90 0.92 0.97 0.98 1.09 1.05 1.00
0.65 0.72 0.80 0.95 1.06 1.20 1.22 1.26 1.27 1.32 1.41 1.43 1.42 1.45 1.43 1.52 1.93 2.05 1.69 1.35 1.28 1.33 1.33 1.26 1.26 1.43 1.50 1.59 1.71 1.70 1.70 1.75 1.74 1.63 1.46 1.25 0.99 0.93 1.01 1.17 1.30 1.39 1.32
0.56 0.67 0.74 0.88 1.00 1.10 1.14 1.17 1.20 1.14 1.13 1.23 1.31 1.28 1.25 1.33 1.67 1.77 1.47 1.06 0.97 1.06 1.11 1.10 1.08 1.15 1.34 1.32 1.43 1.48 1.54 1.66 1.81 1.85 1.80 1.47 1.21 1.08 1.27 1.44 1.46 1.52 1.43
0.51 0.63 0.67 0.77 0.91 0.96 1.03 1.07 1.08 1.01 0.99 1.10 1.14 1.07 1.00 1.05 1.39 1.52 1.31 0.95 0.90 0.95 1.00 1.01 0.99 1.00 1.16 1.35 1.41 1.31 1.23 1.32 1.55 1.71 1.84 1.66 1.45 1.43 1.64 1.87 1.91 1.89 1.72
0.46 0.56 0.60 0.68 0.84 0.85 0.92 1.01 1.00 1.00 0.98 0.96 0.96 0.92 0.85 0.88 1.16 1.44 1.32 0.91 0.94 0.95 0.96 1.01 0.96 0.90 1.18 1.38 1.37 1.29 1.17 1.15 1.28 1.57 1.74 1.78 1.80 1.87 2.04 2.33 2.47 2.50 2.31
0.44 0.51 0.55 0.60 0.73 0.74 0.75 0.81 0.86 0.87 0.90 0.91 0.89 0.84 0.81 0.78 0.98 1.36 1.39 0.98 0.96 0.94 0.94 0.98 1.11 1.10 1.25 1.33 1.25 1.27 1.30 1.14 1.03 1.10 1.22 1.30 1.35 1.45 1.76 2.03 2.30 2.55 2.47
0.38 0.44 0.50 0.55 0.62 0.63 0.66 0.68 0.73 0.78 0.82 0.86 0.87 0.81 0.73 0.74 0.83 1.12 1.47 1.20 1.00 0.93 0.94 0.99 1.02 1.18 1.22 1.28 1.30 1.28 1.39 1.22 1.03 1.09 1.13 1.11 1.15 1.24 1.40 1.65 2.01 2.34 2.54
0.35 0.41 0.46 0.52 0.55 0.57 0.61 0.66 0.68 0.76 0.87 0.89 0.86 0.84 0.77 0.73 0.79 0.98 1.26 1.37 1.20 1.00 0.95 0.85 0.87 1.05 1.09 1.20 1.22 1.27 1.32 1.26 1.17 1.19 1.18 1.14 1.15 1.23 1.32 1.44 1.67 1.93 2.12
0.37 0.41 0.47 0.51 0.50 0.57 0.63 0.69 0.73 0.79 0.89 0.91 0.87 0.84 0.81 0.79 0.86 1.05 1.07 1.13 1.22 1.09 1.02 1.05 0.97 1.02 1.04 1.01 1.06 1.17 1.18 1.11 1.20 1.20 1.11 1.06 1.06 1.14 1.20 1.29 1.38 1.58 1.78
0.38 0.40 0.46 0.54 0.55 0.55 0.61 0.69 0.73 0.77 0.91 0.96 0.93 0.90 0.83 0.81 0.93 1.16 1.10 1.04 1.13 1.13 1.11 1.09 1.05 1.05 1.04 0.99 1.00 1.00 0.98 1.02 1.13 1.12 1.01 0.92 0.92 1.03 1.16 1.27 1.38 1.47 1.67
0.39 0.41 0.47 0.56 0.59 0.56 0.58 0.64 0.71 0.73 0.94 1.11 1.03 1.03 1.01 1.02 1.11 1.33 1.33 1.26 1.27 1.28 1.29 1.27 1.18 1.13 1.11 1.03 0.96 0.92 0.93 0.99 1.04 0.98 0.96 0.94 0.94 1.00 1.09 1.18 1.37 1.48 1.61
0.44 0.46 0.50 0.57 0.59 0.58 0.58 0.63 0.71 0.74 0.81 0.85 0.93 1.02 0.99 1.10 1.16 1.13 1.21 1.26 1.28 1.33 1.36 1.32 1.13 1.02 1.00 0.95 0.92 0.91 0.88 0.87 0.86 0.91 0.95 0.94 0.97 1.02 1.06 1.10 1.27 1.44 1.51
0.49 0.52 0.54 0.58 0.59 0.60 0.58 0.61 0.68 0.67 0.69 0.73 0.79 0.88 1.00 1.08 1.04 1.03 1.09 1.11 1.13 1.13 1.11 1.01 0.93 0.92 0.90 0.88 0.87 0.86 0.86 0.79 0.80 0.88 0.91 0.91 0.95 1.01 1.04 1.07 1.14 1.28 1.36
0.50 0.56 0.59 0.60 0.60 0.60 0.57 0.59 0.65 0.71 0.76 0.79 0.84 0.90 0.98 1.04 1.03 1.03 1.10 1.14 1.14 1.05 0.92 0.88 0.88 0.87 0.86 0.87 0.88 0.88 0.85 0.83 0.86 0.89 0.90 0.91 0.97 1.05 1.06 1.04 1.06 1.18 1.25
0.53 0.57 0.60 0.61 0.60 0.57 0.56 0.59 0.62 0.67 0.75 0.84 0.89 0.95 1.02 1.02 1.00 1.02 1.03 1.00 0.98 0.95 0.89 0.85 0.82 0.81 0.85 0.89 0.91 0.89 0.90 0.90 0.88 0.91 0.91 0.91 0.93 1.01 1.02 0.94 0.96 1.09 1.22
0.57 0.67 0.69 0.65 0.63 0.60 0.59 0.62 0.64 0.69 0.75 0.81 0.89 0.95 1.05 1.09 1.03 1.02 0.94 0.89 0.94 0.93 0.90 0.88 0.83 0.81 0.87 0.93 0.97 0.97 0.97 0.92 0.90 0.91 0.87 0.85 0.86 0.91 0.93 0.89 0.91 1.00 1.06
0.62 0.65 0.70 0.68 0.66 0.66 0.68 0.68 0.69 0.74 0.79 0.80 0.84 0.94 1.18 1.19 1.02 0.88 0.84 0.82 0.87 0.92 0.91 0.91 0.90 0.90 0.92 0.96 0.96 0.96 0.96 0.92 0.89 0.90 0.89 0.85 0.83 0.85 0.84 0.86 0.86 0.89 0.94
0.64 0.65 0.62 0.64 0.69 0.73 0.77 0.75 0.77 0.79 0.80 0.83 0.85 0.90 0.99 0.93 0.86 0.81 0.79 0.78 0.80 0.83 0.89 0.96 0.95 0.90 0.92 0.98 1.01 0.99 0.94 0.87 0.81 0.83 0.85 0.83 0.81 0.80 0.80 0.81 0.80 0.84 0.89
0.67 0.69 0.66 0.66 0.70 0.78 0.77 0.72 0.75 0.78 0.83 0.86 0.86 0.88 0.87 0.87 0.84 0.80 0.80 0.79 0.79 0.77 0.80 0.89 0.92 0.85 0.82 0.86 0.91 0.97 0.97 0.87 0.79 0.80 0.87 0.86 0.81 0.76 0.76 0.77 0.74 0.79 0.84
0.68 0.68 0.69 0.72 0.74 0.76 0.75 0.75 0.77 0.79 0.86 0.93 0.92 0.91 0.90 0.88 0.85 0.78 0.75 0.76 0.76 0.75 0.76 0.82 0.84 0.80 0.77 0.80 0.82 0.82 0.83 0.84 0.86 0.86 0.86 0.88 0.82 0.76 0.77 0.78 0.76 0.75 0.79
0.66 0.68 0.71 0.77 0.81 0.81 0.82 0.81 0.81 0.83 0.88 0.93 0.94 0.93 0.88 0.85 0.81 0.77 0.73 0.74 0.76 0.76 0.74 0.76 0.79 0.79 0.75 0.73 0.75 0.78 0.86 0.94 1.00 1.09 1.17 1.17 1.02 0.87 0.83 0.83 0.79 0.75 0.78
0.64 0.67 0.72 0.80 0.86 0.86 0.87 0.88 0.85 0.86 0.92 0.93 0.92 0.91 0.89 0.87 0.83 0.80 0.79 0.79 0.82 0.80 0.77 0.73 0.73 0.76 0.76 0.74 0.74 0.81 0.89 0.94 1.06 1.26 1.46 1.50 1.23 0.95 0.84 0.85 0.78 0.77 0.80